Find Tiangong (Chinese Space Station)

NORAD ID: 48274 Int'l Des: 2021-035 Owner: CMSEO Country: CN operational
LEOCIRCULAR

現在のビュー

3D地球を読み込み中...

About Tiangong (Chinese Space Station)

Tiangong (Chinese Space Station) (NORAD 48274) is a satellite launched Apr 29, 2021 by CMSEO of CN. It operates in LEO, CIRCULAR orbit with a mass of 21500.00 kg.

次回通過

Passes for default location (London). Set your location on the main map for personalized predictions.

高度履歴

Loading altitude history...

軌道要素

1 48274U 21035A 26164.84158950 .00024252 00000-0 28689-3 0 9996
2 48274 41.4695 342.3609 0007804 49.8258 310.3263 15.60672813292648
Epoch: Jun 13, 2026 • Age: 7 hours

現在のステータス

高度 399.9 km
速度 7.67 km/s
衛星直下点 -38.92°S, 40.86°W
打ち上げ日 Apr 29, 2021
運用期間 5.1 years
タイプ other

技術仕様

分類 Payload
質量 21500.00 kg
乾燥質量 20838.00 kg
総質量 22500.00 kg
長さ 16.60 m
直径 4.20 m
スパン 30.00 m
形状 Step Cyl + 2 Pan
製造者 CAST
バスタイプ Tianhe
フェーズステータス In Orbit
所有者/国 CMSEO/CN

Most Searched